CW5988 Weather Reports


time (UTC)temp
F
wind
direction
speed
knots
gust
knots
rain 1hr
in
rain 24hr
in
rain mn
in
humidity
%
barometer
mb
20260831053426 58 351 2.6 7.8 0.00 0.00 0.00 84 1012.6
20260831052932 58 107 0.9 4.3 0.00 0.00 0.00 84 1012.7
20260831052418 58 163 0.9 6.1 0.00 0.00 0.00 84 1012.6
20260831051923 58 134 2.6 6.1 0.00 0.00 0.00 84 1012.6
20260831051422 58 177 1.7 4.3 0.00 0.00 0.00 84 1012.7
20260831050929 58 88 2.6 4.3 0.00 0.00 0.00 84 1012.7
20260831050430 58 346 2.6 4.3 0.00 0.00 0.00 84 1012.7
20260831045934 58 75 3.5 7.0 0.00 0.00 0.00 84 1012.7
20260831045418 58 123 0.9 7.8 0.00 0.00 0.00 84 1012.6
20260831044920 58 162 3.5 7.8 0.00 0.00 0.00 84 1012.8
20260831044426 58 160 1.7 7.8 0.00 0.00 0.00 84 1012.7
20260831043930 58 163 3.5 10.4 0.00 0.00 0.00 84 1012.7
20260831043435 58 157 4.3 10.4 0.00 0.00 0.00 84 1012.7
20260831042938 58 5 1.7 7.0 0.00 0.00 0.00 84 1012.7
20260831042420 58 50 3.5 7.0 0.00 0.00 0.00 84 1012.7
20260831041926 58 82 3.5 7.0 0.00 0.00 0.00 85 1012.6
20260831041433 58 62 2.6 5.2 0.00 0.00 0.00 85 1012.7
20260831040938 58 69 2.6 7.0 0.00 0.00 0.00 85 1012.6
20260831040448 58 88 5.2 7.0 0.00 0.00 0.00 85 1012.5
20260831035959 58 52 4.3 6.1 0.00 0.00 0.00 85 1012.5
20260831035422 58 74 4.3 7.0 0.00 0.00 0.00 85 1012.3
20260831034927 58 106 3.5 7.0 0.00 0.00 0.00 85 1012.3
20260831034433 58 64 3.5 6.1 0.00 0.00 0.00 85 1012.3
20260831033919 58 27 2.6 6.1 0.00 0.00 0.00 85 1012.3
20260831033423 58 292 1.7 4.3 0.00 0.00 0.00 85 1012.4
20260831032922 58 62 0.9 7.0 0.00 0.00 0.00 85 1012.3
20260831032425 58 62 4.3 8.7 0.00 0.00 0.00 85 1012.2
20260831031938 58 83 5.2 8.7 0.00 0.00 0.00 85 1012.1
20260831031423 57 67 3.5 7.8 0.00 0.00 0.00 85 1012.1
20260831030929 57 78 4.3 7.0 0.00 0.00 0.00 85 1012.0
20260831030434 57 151 3.5 9.6 0.00 0.00 0.00 85 1011.9
20260831025933 57 322 2.6 13.0 0.00 0.00 0.00 85 1011.8
20260831025418 57 294 5.2 13.0 0.00 0.00 0.00 85 1011.8
20260831024924 57 249 4.3 11.3 0.00 0.00 0.00 85 1011.7
20260831024427 57 12 3.5 11.3 0.00 0.00 0.00 85 1011.7
20260831023933 57 320 5.2 10.4 0.00 0.00 0.00 85 1011.6
20260831023435 57 261 2.6 12.2 0.00 0.00 0.00 85 1011.6
20260831022919 57 214 4.3 9.6 0.00 0.00 0.00 84 1011.5
20260831022438 57 194 3.5 9.6 0.00 0.00 0.00 84 1011.4
20260831021925 57 192 2.6 13.0 0.00 0.00 0.00 84 1011.5
20260831021431 57 222 6.1 16.5 0.00 0.00 0.00 83 1011.6
20260831020936 57 301 7.0 16.5 0.00 0.00 0.00 83 1011.5
20260831020421 58 227 5.2 12.2 0.00 0.00 0.00 83 1011.6
20260831015946 58 254 5.2 13.0 0.00 0.00 0.00 82 1011.6
20260831015430 58 290 6.1 13.9 0.00 0.00 0.00 82 1011.6
20260831014932 58 196 4.3 14.8 0.00 0.00 0.00 81 1011.7
20260831014437 59 112 5.2 14.8 0.00 0.00 0.00 81 1011.7
20260831013942 59 224 6.1 13.0 0.00 0.00 0.00 80 1011.6
20260831013423 60 62 5.2 11.3 0.00 0.00 0.00 80 1011.7
20260831012927 60 319 3.5 7.0 0.00 0.00 0.00 80 1011.7
20260831012434 60 57 0.9 9.6 0.00 0.00 0.00 80 1011.7
20260831011933 60 83 1.7 9.6 0.00 0.00 0.00 79 1011.8
20260831011437 60 155 3.5 8.7 0.00 0.00 0.00 79 1012.0
20260831010920 60 327 4.3 9.6 0.00 0.00 0.00 79 1011.9
20260831010446 60 62 3.5 9.6 0.00 0.00 0.00 79 1011.9
20260831005927 60 59 4.3 8.7 0.00 0.00 0.00 78 1012.0
20260831005434 61 27 3.5 9.6 0.00 0.00 0.00 78 1012.1
20260831004921 61 163 6.1 10.4 0.00 0.00 0.00 78 1012.0
20260831004423 61 78 1.7 10.4 0.00 0.00 0.00 78 1012.1
20260831003926 61 31 4.3 9.6 0.00 0.00 0.00 78 1012.2
20260831003459 61 71 1.7 11.3 0.00 0.00 0.00 77 1012.0
20260831002951 61 313 4.3 11.3 0.00 0.00 0.00 77 1012.0
20260831002434 62 124 3.5 10.4 0.00 0.00 0.00 77 1012.0
20260831001938 62 66 4.3 12.2 0.00 0.00 0.00 76 1012.1
20260831001446 62 80 4.3 15.6 0.00 0.00 0.00 76 1012.1
20260831000933 62 277 2.6 15.6 0.00 0.00 0.00 77 1012.2
20260831000436 61 125 4.3 13.0 0.00 0.00 0.00 77 1012.3
20260830235918 61 244 5.2 11.3 0.00 0.00 0.00 76 1012.3
20260830235424 62 261 5.2 11.3 0.00 0.00 0.00 76 1012.4
20260830234927 62 172 3.5 11.3 0.00 0.00 0.00 75 1012.4
20260830234433 63 245 5.2 11.3 0.00 0.00 0.00 74 1012.3
20260830233933 63 8 3.5 9.6 0.00 0.00 0.00 74 1012.4
20260830233435 63 123 4.3 8.7 0.00 0.00 0.00 74 1012.5
20260830232921 63 205 3.5 8.7 0.00 0.00 0.00 74 1012.5
20260830232426 63 304 3.5 8.7 0.00 0.00 0.00 74 1012.5
20260830231929 63 17 4.3 14.8 0.00 0.00 0.00 75 1012.4
20260830231434 63 327 6.1 14.8 0.00 0.00 0.00 75 1012.5
20260830230918 63 116 4.3 12.2 0.00 0.00 0.00 75 1012.4
20260830230423 63 217 5.2 16.5 0.00 0.00 0.00 75 1012.5
20260830225921 63 209 7.0 16.5 0.00 0.00 0.00 74 1012.5
20260830225425 63 283 5.2 13.9 0.00 0.00 0.00 74 1012.6
20260830224931 63 197 5.2 13.9 0.00 0.00 0.00 74 1012.7
20260830224435 63 302 6.1 13.0 0.00 0.00 0.00 74 1012.7
20260830223919 63 258 6.1 13.9 0.00 0.00 0.00 74 1012.7
20260830223419 63 235 5.2 13.9 0.00 0.00 0.00 74 1012.7
20260830222923 63 222 6.1 14.8 0.00 0.00 0.00 74 1012.8
20260830222440 63 231 7.0 14.8 0.00 0.00 0.00 75 1012.8
20260830221923 62 195 7.0 18.2 0.00 0.00 0.00 76 1013.0
20260830221428 62 216 8.7 18.2 0.00 0.00 0.00 76 1013.1
20260830220932 62 209 7.0 18.2 0.00 0.00 0.00 76 1013.1
20260830220418 62 219 9.6 15.6 0.00 0.00 0.00 75 1013.1
20260830215922 62 209 7.8 17.4 0.00 0.00 0.00 76 1013.2
20260830215425 63 214 7.8 17.4 0.00 0.00 0.00 76 1013.3
20260830214928 62 287 9.6 18.2 0.00 0.00 0.00 76 1013.3
20260830214435 62 220 7.8 20.0 0.00 0.00 0.00 77 1013.4
20260830213918 62 359 8.7 18.2 0.00 0.00 0.00 76 1013.4
20260830213440 62 360 7.0 18.2 0.00 0.00 0.00 76 1013.6
20260830212924 62 226 10.4 18.2 0.00 0.00 0.00 76 1013.6
20260830212448 62 229 7.8 15.6 0.00 0.00 0.00 76 1013.5
20260830211930 62 226 7.8 16.5 0.00 0.00 0.00 76 1013.8
20260830211418 62 36 7.8 19.1 0.00 0.00 0.00 76 1013.9
20260830210943 62 230 10.4 19.1 0.00 0.00 0.00 75 1013.9
20260830210424 63 271 7.0 14.8 0.00 0.00 0.00 76 1013.9
20260830205927 62 199 8.7 15.6 0.00 0.00 0.00 76 1014.0
20260830205433 62 256 7.0 15.6 0.00 0.00 0.00 76 1014.1
20260830204932 62 220 7.0 15.6 0.00 0.00 0.00 77 1014.1
20260830204419 61 217 8.7 19.1 0.00 0.00 0.00 77 1014.3
20260830203928 61 205 8.7 19.1 0.00 0.00 0.00 77 1014.2
20260830203452 62 207 6.1 13.9 0.00 0.00 0.00 77 1014.4
20260830202957 61 222 7.8 13.9 0.00 0.00 0.00 77 1014.3
20260830202420 62 315 7.0 13.9 0.00 0.00 0.00 77 1014.4
20260830201944 62 253 5.2 15.6 0.00 0.00 0.00 78 1014.3
20260830201457 61 232 7.0 15.6 0.00 0.00 0.00 78 1014.4
20260830200923 62 236 6.1 16.5 0.00 0.00 0.00 78 1014.5
20260830200424 62 192 7.0 16.5 0.00 0.00 0.00 78 1014.6
20260830195923 61 27 5.2 17.4 0.00 0.00 0.00 78 1014.6
20260830195429 61 321 7.0 17.4 0.00 0.00 0.00 78 1014.6
20260830194932 61 280 6.1 15.6 0.00 0.00 0.00 79 1014.6
20260830194436 61 251 7.8 15.6 0.00 0.00 0.00 79 1014.7
20260830193920 61 191 9.6 15.6 0.00 0.00 0.00 78 1014.7
20260830193424 61 222 6.1 13.0 0.00 0.00 0.00 79 1014.7
20260830192928 61 235 3.5 13.0 0.00 0.00 0.00 80 1014.7
20260830192455 60 278 7.0 14.8 0.00 0.00 0.00 79 1014.9
20260830191920 60 237 9.6 14.8 0.00 0.00 0.00 79 1014.8
20260830191424 61 217 6.1 12.2 0.00 0.00 0.00 79 1014.7
20260830190929 60 229 7.8 14.8 0.00 0.00 0.00 79 1014.8
20260830190436 60 222 7.0 14.8 0.00 0.00 0.00 80 1014.9
20260830185933 60 200 7.0 16.5 0.00 0.00 0.00 80 1015.0
20260830185418 61 219 4.3 11.3 0.00 0.00 0.00 80 1014.8
20260830184940 60 237 4.3 11.3 0.00 0.00 0.00 80 1014.8
20260830184425 60 212 5.2 13.0 0.00 0.00 0.00 81 1015.0
20260830183929 60 261 7.0 13.9 0.00 0.00 0.00 81 1014.9
20260830183433 59 209 7.0 13.9 0.00 0.00 0.00 82 1014.9
20260830182918 59 196 7.0 13.0 0.00 0.00 0.00 82 1014.9
20260830182443 59 249 7.0 13.0 0.00 0.00 0.00 83 1014.9
20260830181920 59 194 6.1 9.6 0.00 0.00 0.00 83 1014.9
20260830181455 59 182 2.6 13.0 0.00 0.00 0.00 83 1014.9
20260830180936 58 200 5.2 13.0 0.00 0.00 0.00 83 1015.0
20260830180421 59 207 4.3 9.6 0.00 0.00 0.00 83 1015.0
20260830175925 58 261 4.3 12.2 0.00 0.00 0.00 84 1014.9
20260830175429 58 208 5.2 12.2 0.00 0.00 0.00 84 1015.0
20260830174941 58 189 3.5 8.7 0.00 0.00 0.00 84 1015.0
20260830174426 58 268 3.5 11.3 0.00 0.00 0.00 84 1015.1
20260830152420 57 230 4.3 7.8 0.00 0.00 0.00 86 1014.7
20260830151944 57 242 2.6 7.8 0.00 0.00 0.00 86 1014.6
20260830151428 57 188 3.5 7.8 0.00 0.00 0.00 86 1014.6
20260830150935 57 177 2.6 7.0 0.00 0.00 0.00 86 1014.6
20260830150435 57 249 3.5 8.7 0.00 0.00 0.00 86 1014.5
20260830145939 57 244 2.6 7.0 0.00 0.00 0.00 86 1014.5
20260830145422 57 228 2.6 7.0 0.00 0.00 0.00 86 1014.5
20260830144955 57 209 2.6 7.0 0.00 0.00 0.00 86 1014.5
20260830144420 57 199 3.5 8.7 0.00 0.00 0.00 86 1014.5
20260830143925 56 154 2.6 6.1 0.00 0.00 0.00 86 1014.6
20260830143443 56 285 1.7 7.8 0.00 0.00 0.00 86 1014.5
20260830142450 56 226 3.5 7.8 0.00 0.00 0.00 86 1014.4
20260830141430 57 219 2.6 6.1 0.00 0.00 0.00 86 1014.3
20260830140930 57 134 1.7 7.0 0.00 0.00 0.00 86 1014.2
20260830140429 57 251 3.5 7.0 0.00 0.00 0.00 86 1014.2
20260830135935 57 220 1.7 7.0 0.00 0.00 0.00 86 1014.2
20260830135419 57 221 1.7 8.7 0.00 0.00 0.00 86 1014.1
20260830134942 56 224 3.5 8.7 0.00 0.00 0.00 86 1014.0
20260830134425 57 216 2.6 4.3 0.00 0.00 0.00 86 1013.9
20260830133930 57 268 1.7 6.1 0.00 0.00 0.00 86 1013.9
20260830133429 56 183 2.6 6.1 0.00 0.00 0.00 86 1013.9
20260830132934 57 299 0.9 5.2 0.00 0.00 0.00 86 1013.8
20260830132450 57 268 1.7 5.2 0.00 0.00 0.00 86 1013.8
20260830132004 56 217 2.6 7.0 0.00 0.00 0.00 86 1013.8
20260830131457 56 268 2.6 8.7 0.00 0.00 0.00 85 1013.7
20260830130943 56 212 2.6 8.7 0.00 0.00 0.00 85 1013.6
20260830130441 57 289 1.7 6.1 0.00 0.00 0.00 86 1013.6
20260830125925 57 123 1.7 6.1 0.00 0.00 0.00 86 1013.6
20260830125431 57 326 1.7 4.3 0.00 0.00 0.00 86 1013.5
20260830124937 57 194 2.6 5.2 0.00 0.00 0.00 86 1013.4
20260830124452 57 124 2.6 6.1 0.00 0.00 0.00 86 1013.4
20260830123934 57 274 3.5 6.1 0.00 0.00 0.00 85 1013.4
20260830122933 57 205 1.7 2.6 0.00 0.00 0.00 85 1013.3
20260830122417 57 208 1.7 2.6 0.00 0.00 0.00 85 1013.2
20260830121921 57 45 0.9 4.3 0.00 0.00 0.00 85 1013.2
20260830121428 57 168 1.7 4.3 0.00 0.00 0.00 85 1013.3
20260830120935 57 222 1.7 4.3 0.00 0.00 0.00 85 1013.2
20260830120437 56 154 2.6 4.3 0.00 0.00 0.00 85 1013.2
20260830115920 57 256 1.7 6.1 0.00 0.00 0.00 85 1013.2
20260830115426 57 313 3.5 6.1 0.00 0.00 0.00 85 1013.3
20260830114931 57 160 1.7 7.8 0.00 0.00 0.00 85 1013.3
20260830114426 57 151 1.7 7.8 0.00 0.00 0.00 85 1013.3
20260830113933 57 244 2.6 8.7 0.00 0.00 0.00 85 1013.2
20260830113439 57 283 4.3 8.7 0.00 0.00 0.00 85 1013.2
20260830112918 57 157 3.5 7.8 0.00 0.00 0.00 85 1013.2
20260830112445 57 45 0.9 4.3 0.00 0.00 0.00 85 1013.2
20260830111932 57 148 1.7 6.1 0.00 0.00 0.00 85 1013.1
20260830111419 57 111 1.7 5.2 0.00 0.00 0.00 85 1013.2
20260830110925 57 10 1.7 8.7 0.00 0.00 0.00 85 1013.2
20260830110429 57 106 2.6 8.7 0.00 0.00 0.00 85 1013.2
20260830105959 57 177 0.9 11.3 0.00 0.00 0.00 85 1013.3
20260830105453 57 230 4.3 11.3 0.00 0.00 0.00 85 1013.2
20260830104935 57 201 3.5 11.3 0.00 0.00 0.00 85 1013.2
20260830104417 57 134 4.3 13.0 0.00 0.00 0.00 85 1013.2
20260830103943 57 276 6.1 13.0 0.00 0.00 0.00 85 1013.2
20260830103427 57 252 5.2 15.6 0.00 0.00 0.00 85 1013.2
20260830102931 57 233 7.0 15.6 0.00 0.00 0.00 85 1013.1
20260830102435 57 219 7.0 13.0 0.00 0.00 0.00 85 1013.1
20260830101949 57 261 7.0 14.8 0.00 0.00 0.00 85 1013.1
20260830101433 57 216 6.1 14.8 0.00 0.00 0.00 85 1013.1
20260830100936 57 239 6.1 13.9 0.00 0.00 0.00 85 1013.1
20260830100418 57 227 6.1 13.0 0.00 0.00 0.00 85 1013.1
20260830095922 57 227 4.3 11.3 0.00 0.00 0.00 85 1013.1
20260830095424 57 230 3.5 7.8 0.00 0.00 0.00 85 1013.2
20260830094930 57 102 4.3 12.2 0.00 0.00 0.00 85 1013.2
20260830094435 57 229 2.6 17.4 0.00 0.00 0.00 85 1013.1
20260830093937 57 255 7.0 17.4 0.00 0.00 0.00 85 1013.1
20260830093421 57 202 7.8 17.4 0.00 0.00 0.00 85 1013.0
20260830092926 57 247 10.4 17.4 0.00 0.00 0.00 85 1013.1
20260830092433 57 251 5.2 17.4 0.00 0.00 0.00 85 1013.0
20260830091933 57 264 10.4 17.4 0.00 0.00 0.00 85 1012.9
20260830091419 57 272 11.3 20.0 0.00 0.00 0.00 85 1012.9
20260830090926 57 249 9.6 20.0 0.00 0.00 0.00 85 1012.9
20260830090429 57 233 9.6 18.2 0.00 0.00 0.00 85 1012.8
20260830085933 57 259 10.4 17.4 0.00 0.00 0.00 84 1012.8
20260830085418 57 242 8.7 15.6 0.00 0.00 0.00 84 1012.9
20260830084923 57 270 7.0 18.2 0.00 0.00 0.00 84 1013.0
20260830084445 57 273 9.6 18.2 0.00 0.00 0.00 84 1013.0
20260830083927 57 245 9.6 18.2 0.00 0.00 0.00 83 1013.0
20260830083430 57 258 11.3 20.0 0.00 0.00 0.00 83 1013.0
20260830082934 57 313 11.3 20.0 0.00 0.00 0.00 83 1012.9
20260830082421 57 256 12.2 20.0 0.00 0.00 0.00 83 1012.9
20260830081942 57 249 12.2 20.0 0.00 0.00 0.00 83 1012.9
20260830081456 58 270 9.6 17.4 0.00 0.00 0.00 82 1013.0
20260830080937 58 251 7.0 18.2 0.00 0.00 0.00 82 1013.0
20260830080419 58 283 10.4 19.1 0.00 0.00 0.00 82 1013.0
20260830075921 58 277 12.2 19.1 0.00 0.00 0.00 82 1013.0
20260830075428 58 270 8.7 17.4 0.00 0.00 0.00 82 1013.1
20260830074935 58 280 7.8 17.4 0.00 0.00 0.00 81 1013.1
20260830074419 58 270 9.6 17.4 0.00 0.00 0.00 81 1013.1
20260830073923 58 238 7.0 16.5 0.00 0.00 0.00 81 1013.2
20260830073425 58 247 7.0 16.5 0.00 0.00 0.00 81 1013.2
20260830072928 58 291 8.7 16.5 0.00 0.00 0.00 81 1013.1
20260830072433 58 251 7.0 16.5 0.00 0.00 0.00 81 1013.1
20260830071935 58 219 6.1 13.0 0.00 0.00 0.00 81 1013.2
20260830071442 58 227 5.2 9.6 0.00 0.00 0.00 81 1013.3
20260830070946 58 87 1.7 8.7 0.00 0.00 0.00 81 1013.3
20260830070445 58 244 1.7 8.7 0.00 0.00 0.00 81 1013.4
20260830065958 58 299 2.6 7.0 0.00 0.00 0.00 81 1013.4
20260830065420 58 50 3.5 6.1 0.00 0.00 0.00 81 1013.4
20260830064925 58 126 1.7 6.1 0.00 0.00 0.00 81 1013.4
20260830064433 58 137 3.5 7.8 0.00 0.00 0.00 81 1013.3
20260830063937 58 278 3.5 8.7 0.00 0.00 0.00 81 1013.3
20260830063420 58 147 2.6 11.3 0.00 0.00 0.00 81 1013.2
20260830062923 58 239 6.1 14.8 0.00 0.00 0.00 82 1013.2
20260830062429 59 264 7.8 14.8 0.00 0.00 0.00 82 1013.3
20260830061936 59 289 7.0 17.4 0.00 0.00 0.00 82 1013.1
20260830061420 59 278 9.6 18.2 0.00 0.00 0.00 82 1012.9
20260830060925 59 276 9.6 19.1 0.00 0.00 0.00 82 1012.8
20260830060431 59 287 13.0 21.7 0.00 0.00 0.00 82 1012.9
20260830055934 59 268 13.9 25.2 0.00 0.00 0.00 82 1013.0
20260830055419 59 292 13.0 21.7 0.00 0.00 0.00 82 1013.1
20260830054923 59 297 14.8 21.7 0.00 0.00 0.00 82 1013.2
20260830054428 59 256 12.2 22.6 0.00 0.00 0.00 82 1013.2
20260830053933 59 224 14.8 22.6 0.00 0.00 0.00 82 1013.2